Location: Unspecified
(29.9680°N, 0.0000°E)
Time: 00:59:25
(UTC+00:00)

Transit 2A Rocket - All Passes

Search period start: 18 June 2019 00:00
Search period end: 28 June 2019 00:00
Orbit: 586 x 917 km, 66.7° (Epoch: 17 June)

Date Brightness Start Highest point End Pass type
(mag) Time Alt. Az. Time Alt. Az. Time Alt. Az.
18 Jun - 09:51:19 10° S 09:56:58 41° ESE 10:02:38 10° NE daylight
18 Jun - 11:34:37 10° WSW 11:39:41 27° WNW 11:44:43 10° N daylight
18 Jun - 20:24:15 10° NNW 20:29:18 79° ENE 20:33:52 10° SSE visible
19 Jun - 09:10:02 10° SSE 09:14:39 23° ESE 09:19:19 10° NE daylight
19 Jun - 10:51:11 10° SW 10:56:58 45° WNW 11:02:46 10° N daylight
19 Jun - 19:41:59 10° N 19:46:42 39° ENE 19:51:02 10° SE visible
19 Jun - 21:25:59 10° WNW 21:28:46 15° WSW 21:31:25 10° SW visible
20 Jun - 08:30:12 10° SE 08:32:28 12° ESE 08:34:42 10° E daylight
20 Jun - 10:08:18 10° SSW 10:14:23 78° WNW 10:20:29 10° NNE daylight
20 Jun - 11:56:17 10° WNW 11:57:52 11° NW 11:59:25 10° NW daylight
20 Jun - 19:00:08 10° N 19:03:59 21° NE 19:07:33 10° ESE daylight
20 Jun - 20:42:15 10° NW 20:46:34 31° WSW 20:50:33 10° S visible
21 Jun - 09:25:56 10° S 09:31:55 61° ESE 09:37:54 10° NNE daylight
21 Jun - 11:10:42 10° W 11:14:55 19° NW 11:19:06 10° N daylight
21 Jun - 18:19:19 10° NNE 18:21:05 12° NE 18:22:47 10° ENE daylight
21 Jun - 19:59:19 10° NNW 20:04:14 65° WSW 20:08:43 10° SSE visible
22 Jun - 08:44:10 10° S 08:49:33 34° ESE 08:54:57 10° NE daylight
22 Jun - 10:26:45 10° WSW 10:32:07 32° WNW 10:37:28 10° N daylight
22 Jun - 19:16:49 10° NNW 19:21:46 62° ENE 19:26:15 10° SE daylight
23 Jun - 08:03:11 10° SSE 08:07:17 19° ESE 08:11:22 10° ENE daylight
23 Jun - 09:43:31 10° SW 09:49:27 54° WNW 09:55:23 10° NNE daylight
23 Jun - 18:34:41 10° N 18:39:08 31° ENE 18:43:14 10° ESE daylight
23 Jun - 20:17:56 10° WNW 20:21:22 19° WSW 20:24:36 10° SSW visible
24 Jun - 09:00:48 10° SSW 09:06:55 87° ESE 09:13:00 10° NNE daylight
24 Jun - 10:47:23 10° W 10:50:12 13° NW 10:53:01 10° NNW daylight
24 Jun - 17:53:04 10° NNE 17:56:21 17° NE 17:59:27 10° E daylight
24 Jun - 19:34:34 10° NW 19:39:08 39° WSW 19:43:19 10° S visible
25 Jun - 08:18:39 10° S 08:24:30 50° ESE 08:30:19 10° NE daylight
25 Jun - 10:02:39 10° WSW 10:07:20 23° NW 10:11:58 10° N daylight
25 Jun - 18:51:48 10° NNW 18:56:45 83° WSW 19:01:15 10° SSE daylight
26 Jun - 07:37:06 10° SSE 07:42:09 28° ESE 07:47:12 10° NE daylight
26 Jun - 09:18:58 10° SW 09:24:35 38° WNW 09:30:09 10° N daylight
26 Jun - 18:09:25 10° NNW 18:14:13 48° ENE 18:18:36 10° SE daylight
26 Jun - 19:54:27 10° W 19:56:06 12° WSW 19:57:44 10° WSW visible
27 Jun - 06:56:34 10° SE 06:59:54 15° ESE 07:03:14 10° ENE daylight
27 Jun - 08:35:55 10° SW 08:41:58 65° WNW 08:47:59 10° NNE daylight
27 Jun - 17:27:26 10° N 17:31:32 25° ENE 17:35:20 10° ESE daylight
27 Jun - 19:10:04 10° NW 19:13:56 24° WSW 19:17:35 10° SSW daylight
